DLH357 EDDW-EDDF

Flight info

Callsign DLH357
Flight time 0h 38m
Altitude 19000
Route NIE5Z NIE Z88 SAS P605 NORTA T154 ROBAR Z190 GAPLA/N0395F180 T178 KERAX KERAX4D
Aircraft A320/M-SDE3FGHIRWY/LB1

Departure

Time 2026-04-14 16:27
Airport Bremen Airport (EDDW)

Arrival

Time 2026-04-14 17:05
Airport Frankfurt Main Airport (EDDF)
Time Latitude Longitude Altitude Speed Heading
2026-04-14 15:58 53.05177 8.78543 19 ft 0 kts 49°
2026-04-14 16:18 53.05171 8.78530 18 ft 3 kts 50°
2026-04-14 16:18 53.05158 8.78503 18 ft 3 kts 56°
2026-04-14 16:19 53.05148 8.78475 18 ft 3 kts 63°
2026-04-14 16:19 53.05140 8.78445 20 ft 3 kts 78°
2026-04-14 16:19 53.05138 8.78415 22 ft 3 kts 112°
2026-04-14 16:19 53.05142 8.78401 22 ft 0 kts 131°
2026-04-14 16:22 53.05132 8.78421 23 ft 6 kts 131°
2026-04-14 16:22 53.05099 8.78477 18 ft 11 kts 137°
2026-04-14 16:23 53.05011 8.78609 18 ft 18 kts 137°
2026-04-14 16:23 53.04904 8.78654 18 ft 15 kts 172°
2026-04-14 16:23 53.04852 8.78793 17 ft 21 kts 88°
2026-04-14 16:23 53.04858 8.79046 17 ft 22 kts 88°
2026-04-14 16:24 53.04863 8.79279 22 ft 20 kts 89°
2026-04-14 16:24 53.04868 8.79506 22 ft 19 kts 87°
2026-04-14 16:24 53.04874 8.79713 25 ft 17 kts 87°
2026-04-14 16:24 53.04878 8.79901 22 ft 17 kts 88°
2026-04-14 16:25 53.04881 8.80089 20 ft 16 kts 88°
2026-04-14 16:25 53.04886 8.80259 19 ft 14 kts 88°
2026-04-14 16:25 53.04868 8.80421 18 ft 15 kts 126°
2026-04-14 16:25 53.04789 8.80461 19 ft 10 kts 183°
2026-04-14 16:26 53.04739 8.80421 21 ft 9 kts 229°
2026-04-14 16:26 53.04723 8.80311 19 ft 0 kts 267°
2026-04-14 16:26 53.04723 8.80308 19 ft 2 kts 267°
2026-04-14 16:26 53.04716 8.80061 21 ft 55 kts 268°
2026-04-14 16:27 53.04694 8.79030 21 ft 120 kts 268°
2026-04-14 16:27 53.04688 8.77404 258 ft 147 kts 269°
2026-04-14 16:27 53.04372 8.75810 977 ft 149 kts 237°
2026-04-14 16:27 53.03530 8.74676 1397 ft 171 kts 204°
2026-04-14 16:28 53.02334 8.74029 1738 ft 191 kts 201°
2026-04-14 16:28 53.01007 8.73296 2094 ft 213 kts 201°
2026-04-14 16:28 52.99534 8.72460 2376 ft 240 kts 202°
2026-04-14 16:28 52.97822 8.71953 2933 ft 260 kts 179°
2026-04-14 16:29 52.96015 8.72440 3826 ft 265 kts 171°
2026-04-14 16:29 52.94201 8.73067 4717 ft 268 kts 169°
2026-04-14 16:29 52.92373 8.73742 5554 ft 271 kts 169°
2026-04-14 16:29 52.90519 8.74441 6394 ft 275 kts 169°
2026-04-14 16:30 52.88639 8.75151 7187 ft 279 kts 169°
2026-04-14 16:30 52.86731 8.75863 7953 ft 283 kts 169°
2026-04-14 16:30 52.84790 8.76579 8739 ft 288 kts 170°
2026-04-14 16:30 52.82847 8.77287 9500 ft 292 kts 170°
2026-04-14 16:31 52.80849 8.78011 10254 ft 296 kts 171°
2026-04-14 16:31 52.78785 8.78756 10628 ft 315 kts 171°
2026-04-14 16:31 52.76566 8.79551 10804 ft 338 kts 170°
2026-04-14 16:31 52.74193 8.80401 10938 ft 361 kts 170°
2026-04-14 16:32 52.71675 8.81304 11212 ft 376 kts 170°
2026-04-14 16:32 52.69073 8.82240 11786 ft 382 kts 170°
2026-04-14 16:32 52.66482 8.83178 12399 ft 386 kts 170°
2026-04-14 16:32 52.63883 8.84120 13037 ft 389 kts 170°
2026-04-14 16:33 52.61226 8.85083 13661 ft 393 kts 170°
2026-04-14 16:33 52.58547 8.86049 14235 ft 397 kts 170°
2026-04-14 16:33 52.55834 8.87024 14799 ft 400 kts 170°
2026-04-14 16:33 52.53108 8.88004 15385 ft 402 kts 170°
2026-04-14 16:34 52.50362 8.88984 15961 ft 405 kts 170°
2026-04-14 16:34 52.47599 8.89967 16543 ft 408 kts 170°
2026-04-14 16:34 52.44819 8.90958 17123 ft 410 kts 170°
2026-04-14 16:34 52.42022 8.91953 17671 ft 413 kts 170°
2026-04-14 16:35 52.39205 8.92952 18231 ft 415 kts 170°
2026-04-14 16:35 52.36372 8.93953 18728 ft 418 kts 170°
2026-04-14 16:35 52.33558 8.94951 19162 ft 421 kts 170°
2026-04-14 16:35 52.30686 8.95971 19592 ft 424 kts 170°
2026-04-14 16:36 52.27791 8.96994 20016 ft 427 kts 170°
2026-04-14 16:36 52.24876 8.98022 20438 ft 430 kts 170°
2026-04-14 16:36 52.21944 8.99054 20849 ft 432 kts 170°
2026-04-14 16:36 52.18995 9.00088 21250 ft 435 kts 170°
2026-04-14 16:37 52.16027 9.01127 21623 ft 438 kts 169°
2026-04-14 16:37 52.13040 9.02175 21999 ft 440 kts 169°
2026-04-14 16:37 52.10036 9.03235 22363 ft 443 kts 169°
2026-04-14 16:37 52.07061 9.04285 22712 ft 445 kts 169°
2026-04-14 16:38 52.04023 9.05354 23060 ft 448 kts 169°
2026-04-14 16:38 52.00969 9.06423 23401 ft 450 kts 169°
2026-04-14 16:38 51.97898 9.07492 23742 ft 453 kts 169°
2026-04-14 16:38 51.94811 9.08567 24029 ft 455 kts 169°
2026-04-14 16:39 51.91710 9.09643 24296 ft 457 kts 169°
2026-04-14 16:39 51.88594 9.10722 24564 ft 459 kts 169°
2026-04-14 16:39 51.85459 9.11807 24833 ft 461 kts 169°
2026-04-14 16:39 51.82308 9.12860 25083 ft 463 kts 173°
2026-04-14 16:40 51.79110 9.13024 25187 ft 461 kts 188°
2026-04-14 16:40 51.76032 9.11853 25210 ft 462 kts 203°
2026-04-14 16:40 51.73033 9.09899 25210 ft 468 kts 205°
2026-04-14 16:40 51.70002 9.07890 25211 ft 474 kts 205°
2026-04-14 16:41 51.66940 9.05859 25210 ft 478 kts 204°
2026-04-14 16:41 51.63856 9.03823 25211 ft 481 kts 204°
2026-04-14 16:41 51.60751 9.01783 25211 ft 483 kts 204°
2026-04-14 16:41 51.57632 8.99745 25212 ft 485 kts 204°
2026-04-14 16:42 51.54502 8.97704 25212 ft 486 kts 204°
2026-04-14 16:42 51.51365 8.95665 25211 ft 487 kts 204°
2026-04-14 16:42 51.48226 8.93629 25211 ft 487 kts 204°
2026-04-14 16:42 51.45127 8.91619 25209 ft 487 kts 204°
2026-04-14 16:43 51.41984 8.89576 25210 ft 487 kts 204°
2026-04-14 16:43 51.38846 8.87537 25208 ft 487 kts 204°
2026-04-14 16:43 51.35697 8.85496 25215 ft 488 kts 204°
2026-04-14 16:43 51.32552 8.83465 25205 ft 488 kts 204°
2026-04-14 16:44 51.29403 8.81438 25202 ft 488 kts 204°
2026-04-14 16:44 51.26257 8.79414 25203 ft 488 kts 204°
2026-04-14 16:44 51.23108 8.77389 25191 ft 488 kts 204°
2026-04-14 16:45 51.16847 8.73370 25195 ft 489 kts 204°
2026-04-14 16:45 51.13693 8.71350 25201 ft 489 kts 204°
2026-04-14 16:45 51.10538 8.69328 25190 ft 489 kts 204°
2026-04-14 16:45 51.07381 8.67306 25204 ft 489 kts 204°
2026-04-14 16:46 51.04222 8.65290 25204 ft 489 kts 204°
2026-04-14 16:46 51.01063 8.63278 25176 ft 490 kts 203°
2026-04-14 16:46 50.97896 8.61265 25179 ft 490 kts 203°
2026-04-14 16:46 50.94727 8.59253 25172 ft 491 kts 203°
2026-04-14 16:47 50.91558 8.57242 25181 ft 491 kts 203°
2026-04-14 16:47 50.88382 8.55232 25172 ft 491 kts 203°
2026-04-14 16:47 50.85249 8.53258 25183 ft 491 kts 203°
2026-04-14 16:47 50.82073 8.51261 25186 ft 491 kts 203°
2026-04-14 16:48 50.78900 8.49269 25191 ft 492 kts 203°
2026-04-14 16:48 50.76793 8.47947 25195 ft 490 kts 203°
2026-04-14 16:48 50.72600 8.45312 25190 ft 482 kts 203°
2026-04-14 16:48 50.69488 8.43352 24968 ft 481 kts 203°
2026-04-14 16:49 50.66383 8.41398 24725 ft 482 kts 203°
2026-04-14 16:49 50.64319 8.40099 24569 ft 483 kts 203°
2026-04-14 16:49 50.61197 8.38140 24333 ft 483 kts 203°
2026-04-14 16:49 50.57057 8.35554 24017 ft 484 kts 203°
2026-04-14 16:50 50.53927 8.33607 23519 ft 485 kts 203°
2026-04-14 16:50 50.50801 8.31667 22572 ft 480 kts 203°
2026-04-14 16:50 50.47716 8.29755 21761 ft 473 kts 202°
2026-04-14 16:50 50.44674 8.27874 21000 ft 468 kts 202°
2026-04-14 16:51 50.42674 8.26636 20498 ft 464 kts 202°
2026-04-14 16:51 50.39689 8.24789 19757 ft 459 kts 202°
2026-04-14 16:51 50.36734 8.22963 19024 ft 454 kts 202°
2026-04-14 16:51 50.32866 8.20573 18034 ft 449 kts 202°
2026-04-14 16:52 50.29978 8.18789 17330 ft 443 kts 202°
2026-04-14 16:52 50.27124 8.17030 16605 ft 440 kts 202°
2026-04-14 16:52 50.24289 8.15288 15896 ft 436 kts 202°
2026-04-14 16:52 50.22420 8.14141 15426 ft 434 kts 202°
2026-04-14 16:53 50.19621 8.12425 14693 ft 432 kts 202°
2026-04-14 16:53 50.16832 8.10714 13974 ft 429 kts 202°
2026-04-14 16:53 50.14074 8.09019 13164 ft 421 kts 202°
2026-04-14 16:53 50.10505 8.06831 12138 ft 410 kts 202°
2026-04-14 16:54 50.07878 8.05227 11384 ft 402 kts 202°
2026-04-14 16:54 50.06126 8.04161 10883 ft 396 kts 202°
2026-04-14 16:54 50.03621 8.02624 10159 ft 377 kts 204°
2026-04-14 16:54 50.01499 8.00543 9447 ft 357 kts 224°
2026-04-14 16:55 50.00052 7.97644 9271 ft 326 kts 242°
2026-04-14 16:55 49.99198 7.94542 9109 ft 299 kts 248°
2026-04-14 16:55 49.98473 7.91648 8956 ft 277 kts 249°
2026-04-14 16:55 49.97804 7.88961 8788 ft 257 kts 249°
2026-04-14 16:56 49.97176 7.86462 8554 ft 244 kts 249°
2026-04-14 16:56 49.96357 7.84105 7979 ft 252 kts 227°
2026-04-14 16:56 49.94905 7.82614 7521 ft 254 kts 196°
2026-04-14 16:56 49.93161 7.82452 7072 ft 253 kts 165°
2026-04-14 16:57 49.91607 7.83700 6771 ft 262 kts 133°
2026-04-14 16:57 49.90632 7.86027 6547 ft 264 kts 104°
2026-04-14 16:57 49.90415 7.88813 6303 ft 260 kts 81°
2026-04-14 16:57 49.90746 7.91575 6066 ft 261 kts 76°
2026-04-14 16:58 49.91138 7.94323 5831 ft 261 kts 75°
2026-04-14 16:58 49.91561 7.97058 5599 ft 261 kts 75°
2026-04-14 16:58 49.91940 7.99804 5364 ft 260 kts 81°
2026-04-14 16:58 49.92286 8.02498 5136 ft 250 kts 72°
2026-04-14 16:59 49.92869 8.05076 5008 ft 257 kts 68°
2026-04-14 16:59 49.93519 8.07672 5012 ft 259 kts 68°
2026-04-14 16:59 49.94164 8.10286 5012 ft 260 kts 68°
2026-04-14 16:59 49.94782 8.12824 5012 ft 246 kts 68°
2026-04-14 17:00 49.95368 8.15226 5009 ft 232 kts 68°
2026-04-14 17:00 49.95934 8.17552 4910 ft 229 kts 68°
2026-04-14 17:00 49.96496 8.19860 4626 ft 228 kts 68°
2026-04-14 17:00 49.97052 8.22149 4314 ft 225 kts 68°
2026-04-14 17:01 49.97604 8.24421 3987 ft 224 kts 68°
2026-04-14 17:01 49.98140 8.26633 3662 ft 214 kts 68°
2026-04-14 17:01 49.98652 8.28746 3372 ft 205 kts 68°
2026-04-14 17:01 49.99143 8.30775 3080 ft 197 kts 68°
2026-04-14 17:02 49.99618 8.32734 2784 ft 190 kts 68°
2026-04-14 17:02 50.00055 8.34599 2506 ft 177 kts 69°
2026-04-14 17:02 50.00450 8.36312 2416 ft 162 kts 68°
2026-04-14 17:02 50.00838 8.37881 2181 ft 154 kts 67°
2026-04-14 17:03 50.01204 8.39396 1899 ft 146 kts 69°
2026-04-14 17:03 50.01541 8.40851 1679 ft 140 kts 68°
2026-04-14 17:03 50.01883 8.42264 1444 ft 138 kts 67°
2026-04-14 17:03 50.02241 8.43662 1239 ft 141 kts 68°
2026-04-14 17:04 50.02591 8.45082 1067 ft 143 kts 69°
2026-04-14 17:04 50.02930 8.46519 839 ft 142 kts 68°
2026-04-14 17:04 50.03278 8.47945 634 ft 140 kts 69°
2026-04-14 17:04 50.03620 8.49360 415 ft 139 kts 69°
2026-04-14 17:05 50.03937 8.50719 348 ft 126 kts 70°
2026-04-14 17:05 50.04197 8.51756 350 ft 78 kts 69°
2026-04-14 17:05 50.04337 8.52350 347 ft 50 kts 70°
2026-04-14 17:05 50.04392 8.52700 349 ft 27 kts 89°
2026-04-14 17:06 50.04375 8.52968 350 ft 23 kts 98°
2026-04-14 17:06 50.04352 8.53219 349 ft 24 kts 96°
2026-04-14 17:06 50.04391 8.53467 347 ft 24 kts 72°
2026-04-14 17:06 50.04410 8.53726 349 ft 23 kts 85°
2026-04-14 17:07 50.04427 8.53982 345 ft 24 kts 84°
2026-04-14 17:07 50.04444 8.54241 355 ft 23 kts 84°
2026-04-14 17:07 50.04450 8.54485 347 ft 19 kts 99°
2026-04-14 17:07 50.04402 8.54655 353 ft 15 kts 128°
2026-04-14 17:08 50.04325 8.54757 345 ft 15 kts 152°
2026-04-14 17:08 50.04235 8.54817 348 ft 14 kts 159°
2026-04-14 17:08 50.04146 8.54866 351 ft 14 kts 161°
2026-04-14 17:08 50.04035 8.54935 348 ft 18 kts 135°
2026-04-14 17:09 50.04041 8.55114 349 ft 18 kts 69°
2026-04-14 17:09 50.04086 8.55303 354 ft 19 kts 69°
2026-04-14 17:09 50.04136 8.55509 345 ft 21 kts 70°
2026-04-14 17:09 50.04188 8.55728 353 ft 22 kts 70°
2026-04-14 17:10 50.04241 8.55948 355 ft 14 kts 69°
2026-04-14 17:10 50.04296 8.56073 347 ft 15 kts 13°
2026-04-14 17:10 50.04394 8.56032 348 ft 15 kts 352°
2026-04-14 17:10 50.04448 8.56097 349 ft 9 kts 75°
2026-04-14 17:11 50.04417 8.56150 348 ft 0 kts 155°
2026-04-14 17:11 50.04410 8.56155 345 ft 3 kts 155°
2026-04-14 17:11 50.04396 8.56165 352 ft 2 kts 154°
2026-04-14 17:11 50.04391 8.56169 351 ft 0 kts 154°